Flag for Switzerland Weather past 2 weeks in Vernier, Geneva, Switzerland

39 °F

Broken clouds.

Feels Like: 36 °F
Forecast: 29 / 39 °F
Wind: 5 mph from Northwest

Location: Geneva Cointrin Airport

Current Time: Nov 25, 2015 at 1:40:58 PM

Latest Report: Nov 25, 2015 at 1:20 PM

Visibility: N/A

Pressure: 29.83 "Hg

Humidity: 93%

Dew point: 37 °F

Location of VernierLocation

Historic Weather in Vernier — Graph


Vernier temperature yesterday

Maximum temperature yesterday: 39 °F (at 12:50 PM)
Minimum temperature yesterday: 25 °F (at 7:20 AM)
Average temperature yesterday: 34 °F

Past Weeks' High & Low Weather Summary

High64 °F (Nov 16, 3:50 PM)100% (Nov 11, 6:50 AM)30.51 "Hg (Nov 11, 6:50 AM)
Low25 °F (Nov 24, 7:20 AM)39% (Nov 15, 12:20 PM)29.50 "Hg (Nov 21, 12:20 PM)
Average46 °F78%30.18 "Hg
* Reported Nov 10 12:20 PM — Nov 25 12:20 PM, Vernier, Weather by CustomWeather, © 2015

Note: Actual official high and low records may vary slightly from our data, if they occured in-between our weather recording intervals... More about our weather records


Vernier weather history for previous 24 hours

Time TempWeatherWind HumidityBarometerVisibility
12:20 PM
Wed, Nov 25
39 °FBroken clouds.6 mph93%29.83 "HgN/A
11:50 AM37 °FLight rain. Broken clouds.9 mph93%29.86 "Hg6 mi
11:20 AM39 °FRain. Broken clouds.10 mph87%29.89 "Hg4 mi
10:50 AM39 °FLight rain. Broken clouds.7 mph81%29.89 "Hg6 mi
10:20 AM37 °FBroken clouds.6 mph87%29.89 "HgN/A
9:50 AM37 °FBroken clouds.5 mph87%29.89 "HgN/A
9:20 AM36 °FBroken clouds.5 mph93%29.92 "HgN/A
8:50 AM36 °FBroken clouds.2 mph87%29.92 "HgN/A
7:20 AM36 °FLight rain. Mostly cloudy.5 mph87%29.95 "Hg5 mi
6:50 AM36 °FLight rain. Mostly cloudy.3 mph87%29.95 "Hg5 mi
6:20 AM34 °FLight rain. Mostly cloudy.2 mph93%29.95 "Hg5 mi
5:50 AM34 °FLight rain. Mostly cloudy.3 mph93%29.95 "HgN/A
5:20 AM34 °FMostly cloudy.2 mph93%29.95 "HgN/A
4:20 AM34 °FLight snow. Mostly cloudy.7 mph93%29.95 "Hg4 mi
3:50 AM34 °FLight snow. Mostly cloudy.6 mph93%29.98 "Hg4 mi
3:20 AM34 °FLight snow. Mostly cloudy.9 mph93%29.98 "Hg4 mi
2:50 AM34 °FLight snow. Mostly cloudy.10 mph93%30.01 "Hg2 mi
1:50 AM34 °FLight snow. Mostly cloudy.8 mph93%30.01 "Hg2 mi
1:20 AM34 °FLight snow. Mostly cloudy.7 mph93%30.04 "Hg2 mi
12:50 AM34 °FLight snow. Mostly cloudy.9 mph87%30.04 "Hg1 mi
12:20 AM37 °FLight snow. Overcast.9 mph60%30.07 "HgN/A
11:20 PM
Tue, Nov 24
37 °FScattered showers. Overcast.9 mph60%30.07 "HgN/A
10:50 PM37 °FOvercast.8 mph60%30.07 "HgN/A
10:20 PM37 °FOvercast.8 mph65%30.09 "HgN/A
9:50 PM37 °FOvercast.8 mph65%30.09 "HgN/A
9:20 PM37 °FOvercast.7 mph65%30.09 "HgN/A
8:50 PM37 °FPassing clouds.6 mph65%30.12 "HgN/A
8:20 PM36 °FMostly cloudy.6 mph70%30.12 "HgN/A
7:50 PM36 °FMostly cloudy.3 mph70%30.12 "HgN/A
7:20 PM36 °FMostly cloudy.6 mph70%30.12 "HgN/A
6:50 PM37 °FMostly cloudy.6 mph65%30.15 "HgN/A
6:20 PM37 °FPassing clouds.8 mph65%30.15 "HgN/A
5:50 PM37 °FPartly cloudy.8 mph65%30.15 "HgN/A
5:20 PM37 °FClear.7 mph65%30.15 "Hg10 mi
4:50 PM37 °FSunny.7 mph65%30.15 "Hg10 mi
4:20 PM39 °FSunny.8 mph61%30.18 "Hg10 mi
3:50 PM39 °FSunny.7 mph56%30.18 "Hg10 mi
3:20 PM39 °FSunny.7 mph56%30.18 "Hg10 mi
2:50 PM39 °FSunny.6 mph61%30.18 "Hg10 mi
2:20 PM39 °FPassing clouds.6 mph61%30.21 "HgN/A
1:50 PM37 °FPartly sunny.5 mph65%30.21 "HgN/A
1:20 PM37 °FPartly sunny.6 mph65%30.21 "HgN/A
Weather by CustomWeather, © 2015

See weather overviewHow to use our weather pages